Regional Weather Roundup
Issued by NWS

Home | Current Version | Previous Version | Text Only | Print | Product List | Glossary Off
Versions: 1 2 3 4 5 6 7 8 9 10 11 12 13 14 15 16 17 18 19 20 21 22 23 24 25 26 27 28 29 30 31 32 33 34 35 36 37 38 39 40 41 42 43 44 45 46 47 48 49 50

000
ASUS43 KFSD 261710
RWRSD

WEATHER ROUNDUP FOR SOUTH DAKOTA
NATIONAL WEATHER SERVICE SIOUX FALLS SD
1200 PM CDT MON JUN 26 2017

NOTE: "FAIR" INDICATES FEW OR NO CLOUDS BELOW 12,000 FEET WITH NO
SIGNIFICANT WEATHER AND/OR OBSTRUCTIONS TO VISIBILITY.


SDZ001>005-009-010-012>017-261800-
NORTHWEST AND NORTH CENTRAL SOUTH DAKOTA

CITY           SKY/WX    TMP DP  RH WIND       PRES   REMARKS
BUFFALO          N/A     74  40  29 S14G23    30.13F
FAITH            N/A     68  41  37 SE10G17   30.23F
MOBRIDGE       SUNNY     70  41  34 VRB5      30.23F
$$

SDZ012>016-024>037-041>051-057-063-072>074-261800-
SOUTHWEST AND SOUTH CENTRAL SOUTH DAKOTA

CITY           SKY/WX    TMP DP  RH WIND       PRES   REMARKS
RAPID CTY ARPT SUNNY     71  38  29 S12       30.23F
PIERRE         SUNNY     69  42  37 VRB7      30.23F
CUSTER         SUNNY     65  34  31 VRB6      30.29F
ELLSWORTH AFB  SUNNY     72  39  30 SE16      30.22F
PHILIP         SUNNY     72  41  32 E9        30.22F
PINE RIDGE     SUNNY     72  42  34 E9        30.24F
SPEARFISH      FAIR      72  37  28 E8        30.21F
WINNER         FAIR      74  42  31 NE10G17   30.23F
$$

SDZ004>011-016>023-039-040-261800-
NORTHEAST SOUTH DAKOTA

CITY           SKY/WX    TMP DP  RH WIND       PRES   REMARKS
ABERDEEN       SUNNY     66  40  38 NE8       30.26F
WATERTOWN      MOSUNNY   63  43  48 N8        30.24F
BROOKINGS      MOSUNNY   63  40  42 NE12      30.24F
SISSETON         N/A     67  41  38 N8        30.24F
$$

SDZ017-020-022-023-036>040-048>070-261800-
SOUTHEAST SOUTH DAKOTA

CITY           SKY/WX    TMP DP  RH WIND       PRES   REMARKS
SIOUX FALLS    MOSUNNY   67  47  48 N9        30.23S
HURON          SUNNY     67  40  37 N9        30.25S
CHAMBERLAIN    SUNNY     72  42  33 N9        30.24S
MITCHELL       SUNNY     69  39  33 N9G17     30.24F
YANKTON        SUNNY     68  48  48 NE8       30.21F
$$

ABBREVIATIONS USED IN REMARKS
   TC - TEMPERATURE IN CELSIUS
  WCI - WIND CHILL INDEX
   HX - HEAT INDEX
  VSB - VISIBILITY




USA.gov is the U.S. government's official web portal to all federal, state and local government web resources and services.